International Virtual Aviation Organisation

Russian Federation and Kazakhstan MCD

 

Карточка аэропорта UWWW

Внимание!
Информация на этой странице в стадии наполнения.
Если вы не увидели какой-то информации, или заметили неточность - пожалуйста сообщите нам!
Спасибо!
Команда RU-STAFF
Название аэропортаКурумоч
Название аэропорта (англ.)Kurumoch
Превышение476 ft. (145.1 m.)
Координаты53°30.102', 50°9.3000000000001'
Высота перехода900m
Эшелон переходаQFE>=749mm:FL050; QFE<749=>722:FL060; QFE<722:FL070
Коды ответчика4140-4177
Зона ОрВДСамара РПИ (UWWW)
Данные METARUWWW 091400Z 36010MPS 9999 SCT033 22/06 Q1005 R33/CLRD60 NOSIG RMK QFE743/0991
Проноз погоды (TAF)UWWW 091353Z 0915/1015 34007G13MPS 9999 BKN020 TX23/1011Z TN13/1001Z TEMPO 0915/1006 36009G15MPS 6000 -SHRA BKN016CB TEMPO 1006/1015 36011G17MPS
NOTAMshow/hide NOTAM
AWOS   TABLE

Информация о ВПП

ВПП Длина ВПП (м.) Покрытие Курс ВПП Частота ILS
052553Асфальтобетон49110.5
232553Асфальтобетон229109.7
153003Железобетон148111.9
333003Железобетон328111.1

Диспетчерские позиции

Позывной Наименование органа УВД Частота
UWWW_GNDСамара-Руление119.000
UWWW_TWRСамара-Старт118.200
UWWW_R_APPСамара-Круг128.000
UWWW_APPСамара-Подход124.600
UWWWFM1Машина сопровождения119.000



Спутниковое изображение